Regional Weather Roundup
Issued by NWS State College, PA

Home | Current Version | Previous Version | Graphics & Text | Print | Product List | Glossary Off
Versions: 1 2 3 4 5 6 7 8 9 10 11 12 13 14 15 16 17 18 19 20 21 22 23 24 25 26 27 28 29 30 31 32 33 34 35 36 37 38 39 40 41 42 43 44 45 46 47 48 49 50

000
ASUS41 KCTP 220003
RWRCTP

REGIONAL WEATHER ROUNDUP
NATIONAL WEATHER SERVICE STATE COLLEGE PA
800 PM EDT MON JUL 21 2014

Note: "fair" indicates few or no clouds below 12,000 feet with no
significant weather and/or obstructions to visibility.

* = STATION THAT DOES NOT REPORT PRECIPITATION /E.G. RAIN...SNOW...ETC/
    THUNDER OR FOG.

PAZ002>004-007>009-013>016-020>023-029>032-220100-
WESTERN PENNSYLVANIA

CITY           SKY/WX    TMP DP  RH WIND       PRES   REMARKS
ERIE           CLEAR     77  63  61 CALM      30.13S
MEADVILLE      CLEAR     75  65  70 N7        30.16R
FRANKLIN*      CLEAR     77  63  61 CALM      30.17R
NEW CASTLE       N/A     81  67  62 CALM      30.13S
BEAVER COUNTY  CLEAR     81  66  61 CALM      30.13S
BUTLER*        CLEAR     81  68  65 CALM      30.15S
PITTSBURGH INT PTCLDY    83  67  58 N6        30.12S
PITTSBURGH     PTCLDY    80  66  62 E3        30.12S
INDIANA*       CLEAR     77  68  73 SE8       30.19R
LATROBE        NOT AVBL
WASHINGTON CO* PTCLDY    81  70  69 CALM      30.13S
$$

PAZ004>006-010>012-017>019-024>028-033>037-041-042-045-046-049>053-220100-
CENTRAL PENNSYLVANIA

CITY           SKY/WX    TMP DP  RH WIND       PRES   REMARKS
BRADFORD       PTCLDY    74  65  73 CALM      30.18S
DUBOIS         CLOUDY    77  67  71 CALM      30.16S
CLEARFIELD     MOCLDY    75  67  76 VRB5      30.17R
JOHNSTOWN      PTCLDY    72  67  84 SE5       30.20S
ALTOONA        CLEAR     75  68  78 SE7       30.18S
STATE COLLEGE  PTCLDY    75  68  78 S3        30.17S
WILLIAMSPORT   CLEAR     77  65  66 S9        30.13S
SELINSGROVE    CLEAR     76  67  73 VRB5      30.16S
FT INDIANTOWN  PTCLDY    75  73  92 CALM      30.17S
CAPITAL CITY   MOCLDY    77  66  68 CALM      30.16S
HARRISBURG     PTCLDY    77  69  76 CALM      30.15S
YORK           MOCLDY    77  66  68 CALM      30.17R
$$

PAZ038>040-043-044-047-048-054-055-060>062-067>071-220100-
EASTERN PENNSYLVANIA

CITY           SKY/WX    TMP DP  RH WIND       PRES   REMARKS
SCRANTON       MOCLDY    79  63  57 VRB6      30.16S
MOUNT POCONO   MOCLDY    72  62  71 SW6       30.22S
ALLENTOWN      CLEAR     78  61  55 W6        30.15F
QUAKERTOWN*    CLEAR     79  66  65 CALM      30.17F
READING        CLOUDY    79  64  60 W5        30.15S
LANCASTER      CLOUDY    77  64  64 S6        30.17R
COATESVILLE    MOCLDY    75  66  73 W3        30.19S
POTTSTOWN      CLEAR     79  64  60 SW3       30.18R
BLUE BELL      MOCLDY    81  64  57 SW7       30.16R
DOYLESTOWN     CLEAR     78  63  59 CALM      30.16S
WILLOW GROVE   NOT AVBL
NORTH PHILA    PTCLDY    78  63  59 S6        30.17R
PHILADELPHIA   PTCLDY    79  62  56 S12       30.16R
$$


USA.gov is the U.S. government's official web portal to all federal, state and local government web resources and services.